Location: Rzeszów
(50.0490°N, 21.9990°E)
Time: 23:13:02
(UTC+01:00)

ISS - Visible Passes

Search period start: 23 January 2019 00:00
Search period end: 02 February 2019 00:00
Orbit: 404 x 410 km, 51.6° (Epoch: 24 January)

Date Brightness Start Highest point End Pass type
(mag) Time Alt. Az. Time Alt. Az. Time Alt. Az.
23 Jan -1.5 18:39:54 10° SW 18:41:05 19° SSW 18:41:05 19° SSW visible
24 Jan -2.3 17:49:03 10° SSW 17:51:44 23° SE 17:52:04 23° SE visible
24 Jan -0.4 19:24:39 10° WSW 19:24:47 11° WSW 19:24:47 11° WSW visible
25 Jan -1.6 16:58:37 10° S 17:00:34 15° SE 17:02:33 10° ESE visible
25 Jan -2.7 18:33:21 10° WSW 18:35:41 40° SW 18:35:41 40° SW visible
26 Jan -3.2 17:42:10 10° SW 17:45:18 42° SSE 17:46:30 29° ESE visible
26 Jan -0.7 19:18:28 10° W 19:19:14 16° W 19:19:14 16° W visible
27 Jan -2.4 16:51:10 10° SSW 16:54:02 28° SE 16:56:55 10° E visible
27 Jan -3.6 18:27:02 10° WSW 18:30:00 69° W 18:30:00 69° W visible
28 Jan -3.8 17:35:39 10° WSW 17:38:56 73° SSE 17:40:43 25° E visible
28 Jan -1.1 19:12:16 10° W 19:13:26 20° W 19:13:26 20° W visible
29 Jan -3.7 18:20:48 10° W 18:24:05 67° N 18:24:06 67° N visible
30 Jan -3.8 17:29:19 10° W 17:32:37 78° NNW 17:34:47 20° ENE visible
30 Jan -1.5 19:06:00 10° WNW 19:07:30 24° WNW 19:07:30 24° WNW visible
31 Jan -3.8 18:14:32 10° W 18:17:49 64° N 18:18:09 58° NE visible
01 Feb -3.7 17:23:01 10° W 17:26:18 65° N 17:28:49 16° ENE visible
01 Feb -1.9 18:59:39 10° WNW 19:01:32 31° WNW 19:01:32 31° WNW visible
